Terug naar catalogus

STARLINK-36301

ActiefCommunicatieVLEO
NORAD 67932·PAYLOAD·🇺🇸 United States

Gelanceerd Feb 24, 2026 vanaf Vandenberg Space Force Base

Loading…

Volgende Passages (komende 24 uur)

TLE

VersSource: CelesTrak SupGP

Epoch: Sep 14, 2026, 22:57 UTC

1 67932C 26037A   26257.95673611 -.00014996  00000+0 -54321-3 0  2570
2 67932  43.0032 202.2698 0001466 264.0525  26.3451 15.27582539    10

Volg STARLINK-36301 in realtime met AllMySat

Download on the App Store